Location: Marin
(46.3747°N, 6.5302°E)
Time: 03:11:31
(UTC+00:00)

Daily predictions for brighter satellites

Satellite Brightness Start Highest point End
(mag) Time Altitude Azimuth Time Altitude Azimuth Time Altitude Azimuth
NOSS 2-2 (D) 4.3 00:01:31 10° NW 00:06:34 79° NE 00:11:37 19° SE
Cosmos 1867 3.6 00:05:01 43° SW 00:06:51 79° NW 00:12:22 10° NE
Cosmos 1461 3.2 00:02:48 10° NW 00:06:31 52° W 00:06:31 52° W
Cosmos 2221 Rocket 3.7 00:06:47 53° WSW 00:07:22 59° WNW 00:11:45 10° N
Cosmos 1674 Rocket 3.3 00:06:55 70° SSW 00:07:23 85° W 00:11:45 10° N
Cosmos 2298 Rocket 4.1 00:07:41 50° SSE 00:08:56 67° ESE 00:14:12 10° NNE
Cosmos 1674 3.2 00:10:51 45° WNW 00:10:51 45° WNW 00:14:29 10° N
USA 306 3.3 00:11:52 45° ESE 00:11:52 45° ESE 00:15:21 10° ENE
Cosmos 1238 Rocket 3.5 00:10:10 10° NNW 00:12:06 33° NW 00:12:06 33° NW
Thor Agena Rocket 4.4 00:08:55 10° NNE 00:13:55 41° E 00:15:34 32° SE
ATLAS CENTAUR R/B 3.2 00:10:54 10° WNW 00:13:59 23° W 00:13:59 23° W
USA 307 3.4 00:15:20 42° ESE 00:15:20 42° ESE 00:18:48 10° ENE
SL-16 R/B 3.9 00:16:08 16° SE 00:18:12 20° E 00:22:10 10° NE
ERBS 4.1 00:22:52 21° E 00:22:52 21° E 00:24:12 10° ENE
Cosmos 1980 3.8 00:20:38 44° S 00:22:17 65° ESE 00:27:52 10° NNE
Cosmos 1378 Rocket 3.7 00:22:19 54° WSW 00:22:59 62° W 00:27:25 10° N
Cosmos 2333 Rocket 3.5 00:19:42 18° WSW 00:23:11 33° NW 00:28:17 10° NNE
ATLAS 5 CENTAUR R/B 2.8 00:11:27 10° NW 00:23:20 67° WSW 00:24:40 46° S
CZ-4C R/B 3.1 00:16:41 10° NW 00:23:53 58° WSW 00:27:53 32° S
Cosmos 1455 Rocket 4.2 00:20:04 10° N 00:24:15 38° ENE 00:26:10 25° ESE
USA 215 4.1 00:20:24 10° NE 00:26:37 48° NNW 00:32:51 10° W
Cosmos 332 Rocket 4.3 00:28:23 40° SE 00:29:28 47° ESE 00:34:04 10° NNE
NOSS 0 Rocket 3.9 00:29:23 40° SSW 00:31:52 88° WNW 00:38:09 10° NNE
USA 32 4.0 00:35:15 44° S 00:36:57 86° E 00:42:14 10° N
Meteor 2-10 Rocket 3.7 00:33:03 10° N 00:38:46 77° ENE 00:41:17 34° SSE
Cosmos 1975 Rocket 3.6 00:39:39 39° SE 00:40:52 51° E 00:45:13 10° NNE
Cosmos 1745 Rocket 4.3 00:36:23 10° NNW 00:42:23 52° W 00:44:35 36° SW
ADEOS Rocket 4.3 00:42:18 20° WSW 00:43:33 21° W 00:47:54 10° NW
Cosmos 839 Rocket 4.2 00:37:50 10° NW 00:44:12 71° WSW 00:49:12 22° SSE
USA 308 2.7 00:44:46 63° SSW 00:45:19 75° SE 00:49:31 10° ENE
Cosmos 2219 Rocket 3.7 00:42:56 15° W 00:46:31 29° NW 00:51:21 10° N
Cosmos 1025 Rocket 3.6 00:47:03 36° SE 00:48:21 49° E 00:52:31 10° NNE
Meteor 2-12 Rocket 4.5 00:44:04 10° NNW 00:50:03 63° W 00:52:26 36° SSW
Cosmos 1455 4.1 00:47:15 10° NNE 00:50:19 24° ENE 00:52:38 14° ESE
Cosmos 1269 Rocket 4.5 00:45:51 10° NNW 00:51:05 59° ENE 00:55:07 17° SE
GP-B 3.1 00:52:31 10° N 00:56:58 72° W 00:58:07 48° SSW
Meteor 2-5 Rocket 4.0 00:55:38 31° SSE 00:58:25 64° E 01:04:02 10° NNE
Lacrosse 5 2.5 00:58:31 35° SSE 00:59:48 42° SE 01:04:36 10° ENE
CZ-2D R/B 2.6 00:54:38 10° NNE 00:59:54 53° E 01:02:28 29° SSE
Cosmos 1300 3.0 00:57:37 10° NNW 01:01:16 46° W 01:01:27 45° WSW
USA 267 4.0 01:02:15 29° SW 01:02:50 30° SW 01:08:26 10° WNW
SL-14 R/B 4.2 01:02:27 32° W 01:03:01 34° WNW 01:06:36 10° N
Cosmos 371 Rocket 4.1 01:06:03 29° WSW 01:07:57 43° WNW 01:12:36 10° N
USA 305 3.0 01:07:08 34° WSW 01:08:48 69° NNW 01:12:59 10° NE
Cosmos 1544 Rocket 4.0 01:06:18 10° N 01:10:42 59° ENE 01:13:10 24° SSE
USA 229 DEB 4.3 01:04:08 10° NW 01:11:07 45° WSW 01:15:06 26° S
USA 229 4.3 01:04:14 10° NW 01:11:13 45° WSW 01:15:15 26° S
BREEZE-M DEB (TANK) 4.5 00:55:01 10° WSW 01:12:05 85° NNW 01:16:27 10° ENE
Cosmos 2237 Rocket 2.6 01:11:28 29° SW 01:14:16 57° WNW 01:19:54 10° NNE
COSMOS 2428 4.4 01:12:17 12° W 01:16:19 25° NW 01:21:00 10° N
Cosmos 304 Rocket 4.2 01:17:17 32° WSW 01:19:13 52° WNW 01:23:57 10° NNE
AQUA 4.4 01:14:35 10° NNE 01:19:14 50° E 01:21:49 24° SSE
SL-16 R/B 2.6 01:14:42 16° SSE 01:19:49 82° ENE 01:26:06 10° NNW
Helios 1A 4.3 01:17:06 10° SE 01:20:59 38° ENE 01:24:55 10° N
Lacrosse 5 rocket 2.1 01:21:54 32° SSE 01:22:39 35° SE 01:26:20 10° ENE
SAR-Lupe-2 4.4 01:19:22 10° NNE 01:22:49 44° E 01:24:09 30° SSE
SME Rocket 3.5 01:24:34 37° SW 01:25:39 46° W 01:30:25 10° NNW
Cosmos 1953 4.2 01:23:45 10° NW 01:26:15 16° W 01:26:26 16° W
Cosmos 2074 Rocket 4.0 01:22:37 10° N 01:28:58 86° E 01:33:59 17° S
Resurs 1-4 Rocket 2.0 01:23:50 10° NNE 01:29:08 85° WNW 01:31:56 29° SSW
Cosmos 2297 3.8 01:27:53 10° NNW 01:33:41 80° ENE 01:39:25 10° SSE
Cosmos 1943 Rocket 2.1 01:28:00 10° NNW 01:33:43 83° WSW 01:39:22 10° SSE
CRYOSAT 2 4.4 01:38:47 20° S 01:42:10 84° E 01:47:05 10° N
Cosmos 2184 Rocket 3.9 01:37:34 10° N 01:43:51 78° W 01:48:45 17° S
Cosmos 2278 Rocket 3.5 01:40:20 10° NW 01:44:22 20° W 01:45:23 19° WSW
ADEOS II 2.2 01:39:48 10° NNE 01:45:04 73° ESE 01:48:40 21° S
IDEFIX/ARIANE 42P 2.9 01:40:44 10° NNE 01:45:58 62° ESE 01:49:52 18° S
USA 306 3.8 01:47:34 14° W 01:50:57 43° NNW 01:54:59 10° NE
Cosmos 2084 Rocket 3.6 01:49:15 26° WSW 01:51:08 52° NW 01:54:51 10° NNE
Cosmos 292 Rocket 4.2 01:48:10 21° S 01:51:17 57° ESE 01:56:00 10° NNE
USA 307 3.7 01:51:04 14° W 01:54:25 46° NNW 01:58:29 10° NE
ERBS 3.7 01:54:54 16° W 01:56:45 29° NNW 01:59:30 10° NE
NPP 3.8 01:51:47 10° N 01:57:06 62° WNW 02:00:35 22° SW
Cosmos 2369 Rocket 2.6 01:53:23 10° NNW 01:58:59 64° ENE 02:04:31 10° SE
SL-16 R/B 2.3 01:58:00 22° SW 02:01:43 69° WNW 02:07:24 10° NNE
CZ-4 R/B 4.5 01:57:39 10° N 02:02:01 41° WNW 02:04:41 21° SW
Cosmos 614 Rocket 3.9 01:57:25 10° NNW 02:02:38 78° WSW 02:07:50 10° SSE
Cosmos 2228 3.4 01:58:19 10° N 02:02:41 66° E 02:06:59 10° SSE
IRS-1D 4.2 01:57:43 10° NNE 02:02:57 53° E 02:07:54 11° S
EO 1 Del DPAF 3.0 01:59:42 10° NNE 02:03:15 86° ESE 02:05:16 24° SSW
Cosmos 2251 Rocket 3.8 01:59:23 10° NNW 02:04:38 70° ENE 02:09:54 10° SSE
Meteor 1-28 Rocket 3.2 02:03:36 20° S 02:06:03 63° W 02:09:46 10° NNW
Cosmos 1656 Rocket 4.2 02:02:59 10° NNW 02:08:22 60° ENE 02:13:43 10° SE
COSMOS 2455 2.9 02:04:48 19° SSW 02:09:14 78° ESE 02:15:17 10° NE
Cosmos 1536 Rocket 3.6 02:08:03 21° SSW 02:10:53 64° W 02:15:15 10° N
Nadezhda 1 Rocket 4.1 02:15:05 16° SSW 02:20:20 66° W 02:26:36 10° N
MSX 3.8 02:17:15 10° NNE 02:23:04 86° WNW 02:28:25 12° SSW
USA 308 4.2 02:21:21 10° W 02:25:13 36° NNW 02:29:07 10° NE
Cosmos 1603 4.5 02:19:56 10° S 02:25:17 48° ESE 02:30:43 10° NE
Cosmos 1455 3.4 02:22:42 10° NW 02:25:44 24° W 02:27:22 18° SW
MOS 1 Rocket 3.9 02:23:22 18° SSW 02:25:52 31° W 02:29:44 10° NNW
Cosmos 1271 Rocket 3.2 02:26:05 10° NNW 02:29:41 41° W 02:32:45 14° SSW
Cosmos 1606 Rocket 3.5 02:29:26 10° N 02:33:53 87° W 02:38:15 10° S
ALOS 3.7 02:33:01 10° NNE 02:37:18 35° E 02:41:34 10° SSE
CZ-2C R/B 3.8 02:34:42 10° NNE 02:39:29 38° E 02:44:07 10° SSE
CZ-2D R/B 3.5 02:35:19 10° N 02:39:36 25° WNW 02:43:47 10° WSW
Lacrosse 5 2.6 02:37:47 10° WSW 02:42:45 49° NNW 02:47:43 10° NE
Helios 1B rocket 2.8 02:40:09 10° NNE 02:44:13 64° ESE 02:48:14 10° S
Cosmos 2366 rocket 4.2 02:39:56 10° N 02:46:08 77° E 02:52:19 10° SSE
Cosmos 2341 Rocket 4.1 02:40:16 10° NNW 02:46:40 76° W 02:53:02 10° S
Meteor 2-1 Rocket 4.3 02:45:29 10° NNW 02:51:14 68° W 02:56:49 10° S
BREEZE-M DEB (TANK) 3.0 02:47:13 12° SW 02:51:24 43° SSE 02:53:41 10° E
Cosmos 407 Rocket 3.5 02:47:14 10° NNW 02:52:36 83° WSW 02:57:51 10° SSE
SL-8 Rocket 4.0 02:47:04 10° N 02:53:25 80° W 02:59:43 10° S
SL-19 R/B 4.5 02:48:26 10° NNE 02:54:37 84° WNW 03:00:27 10° SSW
Cosmos 1328 3.8 02:52:37 10° SSW 02:56:32 67° W 03:00:32 10° N
Helios 1A 4.3 02:53:26 10° SW 02:56:36 22° W 02:59:55 10° NW
Cosmos 1943 3.3 02:50:59 10° SSW 02:56:41 89° WNW 03:02:25 10° NNE
Cosmos 2237 Rocket 4.4 02:56:50 10° WNW 02:59:39 14° NW 03:02:28 10° N
Genesis I 3.2 02:56:06 10° NW 03:00:11 86° SW 03:04:10 10° SE
Lacrosse 5 rocket 2.2 02:57:54 10° WSW 03:01:38 42° NNW 03:05:36 10° NE
Meteor 1-29 4.4 03:00:13 10° NNE 03:03:14 34° E 03:06:14 10° SSE
Cosmos 1140 Rocket 3.5 02:58:18 10° NNW 03:03:31 64° WSW 03:08:40 10° S
SL-16 R/B 4.0 03:00:05 10° SW 03:04:09 18° W 03:08:15 10° NW
Resurs 1-4 Rocket 4.1 03:05:25 10° NNW 03:08:10 14° NW 03:10:55 10° W
Lacrosse 4 Rocket 3.4 03:05:27 10° SSE 03:08:59 25° ESE 03:12:28 10° NE
SeaSat 1 3.8 03:04:37 10° NE 03:09:11 36° ESE 03:13:43 10° S
Cosmos 1892 Rocket 3.7 03:05:54 10° SSW 03:10:19 64° W 03:14:48 10° N
IRS-1C 4.4 03:05:46 10° NNE 03:11:08 71° ESE 03:16:26 10° S
Cosmos 1726 Rocket 4.0 03:09:11 10° NNW 03:13:23 43° W 03:17:31 10° SSW
SL-08 R/B 4.1 03:10:25 10° SSE 03:14:54 55° ENE 03:19:28 10° N
Cosmos 1954 Rocket 4.4 03:10:49 10° NNW 03:16:10 73° ENE 03:21:28 10° SSE
FENGYUN 3A 3.7 03:11:53 10° NNE 03:17:17 85° WNW 03:22:41 10° SSW
